Location: Unspecified
(41.1850°N, 73.2650°W)
Time: 20:37:56
(UTC+00:00)

USA 59 Rocket - Pass Details

Date: 14 December 2025
Orbit: 369 x 1675 km, 63.3° (Epoch: 12 January)

Event Time Altitude Azimuth Distance (km) Brightness Sun altitude
Rises 22:50:22 0° 177° (S) 2,990 3.8 -15.5°
Reaches altitude 10° 22:53:42 10° 156° (SSE) 1,842 2.4 -16.1°
Enters shadow 22:55:24 15° 132° (SE) 1,459 1.7 -16.4°
